EXOCUBE (40380 NORAD) Tracking and Keplerian Element Data

This shows tracking and keplerian element data for the satellite.

Feedback or suggestion? Click here.




ElementValue
Catalog40380
NameEXOCUBE
Epoch Orbit20824
Epoch Day315.63815498
Epoch Year2018
RAAN239.5172
Inclination99.0887
Eccentricity0.0142775
Argument of Perigee123.1619
Mean Anonmoly238.3397
Mean Motion15.12884255
Decay Rate1.052E-05
L11 40380U 15003E 18315.63815498 .00001052 00000-0 51432-4 0 9993
L22 40380 99.0887 239.5172 0142775 123.1619 238.3397 15.12884255208248

Live tracking and technical data element details for EXOCUBE (NORAD 40380). EXOCUBE can be tracked NOW for your location showing map with azimuth and elevation plus other details from your city location.

Track the satellite on the map from your city or location and see movement details for azimuth, elevation, latitude, longitude, range, height, and movement on the map or in text.







IsCatalogInMostPopularTable: catalog: 40380, numindb: 111
Update: records affected: 1



GetName: 40380 EXOCUBE

Hit Count: updated at: Mon, 12 Nov 2018 17:34:08 GMT